Weather History for Punta Gorda, FL

Change the Weather History Date:

Tuesday, November 13, 2012

  Actual Average Record
Temperature  
Mean Temperature 72 °F -  
Max Temperature 82 °F 78 °F 90 °F (2008)
Min Temperature 63 °F 57 °F 51 °F (2011)
Cooling Degree Days 8    
Growing Degree Days 22 (Base 50)    
Moisture  
Dew Point 63 °F    
Average Humidity 78    
Maximum Humidity 97    
Minimum Humidity 47    
Precipitation  
Precipitation 0.00 in - - ()
Sea Level Pressure  
Sea Level Pressure 30.15 in    
Wind  
Wind Speed 5 mph (NE)    
Max Wind Speed 10 mph    
Max Gust Speed -    
Visibility 9 miles    
Events      
Averages and records for this station are not official NWS values.
T = Trace of Precipitation, MM = Missing Value Source: NWS Daily Summary

Daily Weather History Graph

Daily Weather History Graph

Search for Another Location

Airport:

Trip Planner

Search our weather history database for the weather conditions in past years. The results will help you decide how hot, cold, wet, or windy it might be!

Date:

Astronomy

Nov. 13, 2012 Rise Set
Actual Time 6:46 AM EST 5:37 PM EST
Civil Twilight 6:22 AM EST 6:02 PM EST
Nautical Twilight 5:54 AM EST 6:30 PM EST
Astronomical Twilight 5:26 AM EST 6:57 PM EST
Moon 6:22 AM EST (11/13) 5:32 PM EST (11/13)
Length of Visible Light 11h 40m
Length of Day
10h 51m
Waning Crescent, 0% of the Moon is Illuminated
Nov 13
Waning Crescent
Nov 13
New
Nov 20
First Quarter
Nov 28
Full
Dec 6
Last Quarter

Hourly Weather History & Observations

Time (EST) Temp. Heat Index Dew Point Humidity Pressure Visibility Wind Dir Wind Speed Gust Speed Precip Events Conditions
12:53 AM 64.9 °F - 63.0 °F 93% 30.17 in 9.0 mi NE 4.6 mph - N/A   Clear
1:53 AM 64.0 °F - 62.1 °F 93% 30.16 in 7.0 mi NE 4.6 mph - N/A   Clear
2:53 AM 64.0 °F - 62.1 °F 93% 30.15 in 2.5 mi Calm Calm - N/A   Clear
3:01 AM 64.4 °F - 62.6 °F 94% 30.15 in 4.0 mi Calm Calm - N/A   Clear
3:53 AM 63.0 °F - 62.1 °F 97% 30.15 in 6.0 mi NE 3.5 mph - N/A   Mostly Cloudy
4:53 AM 64.9 °F - 63.0 °F 93% 30.14 in 8.0 mi NNE 5.8 mph - N/A   Partly Cloudy
5:53 AM 64.0 °F - 62.1 °F 93% 30.16 in 7.0 mi ENE 4.6 mph - N/A   Partly Cloudy
6:53 AM 64.0 °F - 62.1 °F 93% 30.17 in 6.0 mi NE 3.5 mph - N/A   Clear
7:53 AM 66.9 °F - 64.0 °F 90% 30.19 in 9.0 mi NNE 5.8 mph - N/A   Clear
8:53 AM 71.1 °F - 66.0 °F 84% 30.19 in 10.0 mi NE 6.9 mph - N/A   Clear
9:53 AM 78.1 °F - 66.9 °F 68% 30.20 in 10.0 mi NE 8.1 mph - N/A   Clear
10:53 AM 78.1 °F - 66.0 °F 66% 30.18 in 10.0 mi NE 10.4 mph - N/A   Scattered Clouds
11:53 AM 81.0 °F 82.5 °F 64.0 °F 56% 30.17 in 10.0 mi ENE 6.9 mph - N/A   Partly Cloudy
12:53 PM 81.0 °F 82.5 °F 64.0 °F 56% 30.14 in 10.0 mi Variable 5.8 mph - N/A   Partly Cloudy
1:53 PM 82.0 °F 83.1 °F 63.0 °F 52% 30.11 in 10.0 mi ENE 10.4 mph - N/A   Partly Cloudy
2:53 PM 82.9 °F 83.3 °F 61.0 °F 47% 30.10 in 10.0 mi ENE 10.4 mph - N/A   Scattered Clouds
3:53 PM 82.9 °F 83.3 °F 61.0 °F 47% 30.11 in 10.0 mi ENE 5.8 mph - N/A   Clear
4:53 PM 78.1 °F - 62.1 °F 58% 30.11 in 10.0 mi NE 4.6 mph - N/A   Partly Cloudy
5:53 PM 73.0 °F - 63.0 °F 71% 30.11 in 10.0 mi NE 4.6 mph - N/A   Clear
6:53 PM 70.0 °F - 63.0 °F 78% 30.12 in 10.0 mi NNE 4.6 mph - N/A   Clear
7:53 PM 70.0 °F - 63.0 °F 78% 30.13 in 10.0 mi NE 4.6 mph - N/A   Scattered Clouds
8:53 PM 68.0 °F - 63.0 °F 84% 30.14 in 10.0 mi NE 6.9 mph - N/A   Clear
9:53 PM 64.9 °F - 62.1 °F 90% 30.15 in 10.0 mi NE 3.5 mph - N/A   Clear
10:53 PM 64.0 °F - 62.1 °F 93% 30.16 in 10.0 mi ENE 5.8 mph - N/A   Clear
11:53 PM 64.0 °F - 61.0 °F 90% 30.15 in 10.0 mi NE 3.5 mph - N/A   Clear